Find OneWeb SL0060

NORAD ID: 45455 Int'l Des: 2020-020 Owner: ONEWEB Country: UK Constellation: oneweb operational
LEOCIRCULARPOLARONEWEB_TYPE

Live Position

Loading 3D Globe...

About OneWeb SL0060

Description loading...

Upcoming Passes

Passes for default location (London). Set your location on the main map for personalized predictions.

Altitude History

Loading altitude history...

Two-Line Element Set

1 45455U 20020AH 26112.01855046 -.00000146 00000-0 -44855-3 0 9990
2 45455 87.8923 32.2327 0002805 86.2788 273.8660 13.11414105295183
Epoch: Apr 22, 2026 • Age: 18 hours

Current Status

Altitude 1242.6 km
Velocity 7.23 km/s
Sub-Earth Point -59.39°S, 92.7°E
Launch Date Mar 21, 2020
Age 6 years
Type internet

Technical Details

Classification Payload
Mass 148.00 kg
Dry Mass 140.00 kg
Total Mass 148.00 kg
Length 1.30 m
Diameter 1.00 m
Span 5.00 m
Shape Trapezoid+2 pan
Manufacturer ONEWUS
Bus Type ARROW
Phase Status In Orbit
Owner/State ONEWEB/UK

Most Searched